Location: ??
(35.5052°N, 139.7262°E)
Time: 20:24:56
(UTC+00:00)

N. Korean satellite - Pass Details

Date: 05 October 2021
Orbit: 450 x 494 km, 97.3° (Epoch: 28 October)

Event Time Altitude Azimuth Distance (km) Brightness Sun altitude
Rises 19:14:58 0° 26° (NNE) 2,568 10.7 -18.0°
Reaches altitude 10° 19:17:19 10° 40° (NE) 1,688 9.9 -17.6°
Maximum altitude 19:20:21 25° 96° (E) 1,041 9.1 -17.0°
Drops below altitude 10° 19:23:22 10° 153° (SSE) 1,687 9.6 -16.3°
Sets 19:25:42 0° 167° (SSE) 2,566 10.3 -15.9°
